    Orbital elements:
        C/2005 K1 (Skiff)
    Epoch 2005 Nov. 6.0 TT = JDT 2453680.5
    T 2005 Nov. 21.21457 TT                                 MPC
    q   3.6928263            (2000.0)            P               Q
    z  -0.0009067      Peri.  134.94405     +0.05416752     +0.34260913
     +/-0.0000443      Node   106.30572     -0.93588011     -0.31005755
    e   1.0033483      Incl.   77.74746     +0.34812971     -0.88683894
    Residuals in seconds of arc
    050516 699 (1.9-  3.0+)   050527 442  0.6-  1.4-    050617 945  0.0   1.0-
    050516 699 (2.5-  3.5+)   050527 442  0.1-  0.0     050617 442  1.9+  0.9-
    050516 699 (2.4-  2.1+)   050527 048  0.3+  0.5+    050617 442  1.4+  1.0+
    050516 699  1.2-  1.5+    050527 048  0.8+  0.5-    050618 232  0.4+  0.8+
    050517 649  0.3-  0.1+    050527 048  0.4+  0.4-    050618 232  0.7+  0.2+
    050517 649  0.0   0.0     050527 048  0.4+  0.2+    050618 J97  0.4+  0.2+
    050517 649  0.3-  0.1+    050527 048  0.2-  0.2-    050620 A32  0.1-  0.6+
    050517 649  0.3-  0.1+    050527 213  0.1-  0.5+    050620 A32  0.2+  0.9+
    050517 J95  0.0   0.8+    050527 213  0.2-  0.3+    050620 A32  1.4-  0.8+
    050517 J95  0.2+  0.5-    050528 A32  0.4-  0.8+    050620 A32  0.1+  0.2+
    050518 673  0.5+  1.4-    050528 A32  0.3-  0.5+    050620 A32  0.3+  0.4+
    050518 673  0.6+  1.5-    050528 104  0.1+  0.4-    050624 213  0.0   0.1+
    050518 673  0.8+  1.4-    050528 104  0.4-  0.2-    050624 213  0.0   0.2+
    050518 673  0.9+  1.4-    050528 104  0.1+  0.4-    050625 J78  0.9+  1.8-
    050518 H45  0.0   0.0     050528 130  0.5+  1.1+    050625 J78  1.0+  0.4-
    050518 H45  0.9+  0.1-    050528 130  0.5+  0.3-    050625 J78  1.1+  1.8-
    050518 H45  0.8-  0.0     050528 130  0.2-  0.2-    050625 232  0.3-  0.8+
    050518 213  0.1+  0.3-    050528 130  0.5+  0.0     050625 232  0.4-  1.2+
    050518 213  0.1-  0.1-    050528 048  0.4-  0.7-    050625 232  0.4-  1.3+
    050518 213  0.1-  0.0     050528 048  0.7-  0.7-    050625 213  0.2+  0.1+
    050518 213  0.2-  0.1+    050528 048  0.2-  0.1+    050625 213  0.3+  0.1-
    050518 J78  0.3+  0.2-    050528 048  0.3+  0.3-    050625 213  0.3+  0.2-
    050518 J78  0.9+  0.3-    050528 048  0.4+  0.5+    050625 939  0.2-  0.0
    050518 J78  0.0   0.4+    050529 673  0.9+  1.4-    050625 939  0.1-  0.8+
    050519 704  0.2+  1.1-    050529 673  0.6+  1.3-    050625 939  0.0   1.3+
    050519 704  0.7-  0.1-    050529 673  1.0+  1.1-    050626 213  0.2+  0.4-
    050519 704  0.6+  0.9+    050529 673  0.8+  0.8-    050626 213  0.1-  0.1-
    050519 918  0.8+  0.5-    050530 106  1.2-  0.4+    050627 157  0.1-  0.1-
    050519 918  0.1-  0.9-    050530 106  0.5-  0.2+    050627 157  0.1-  0.0
    050519 918  0.4+  0.1-    050530 106  0.4-  0.3-    050627 157  0.2-  0.2-
    050519 918  0.1+  0.9-    050530 372  0.6+  0.1-    050627 157  0.1-  0.4-
    050519 557  0.1-  0.1-    050531 H45  1.7-  0.9+    050628 372  0.6-  0.3+
    050519 557  0.0   0.1+    050531 H45  0.8+  0.1+    050628 372  1.0-  0.1-
    050519 557  0.1-  0.0     050531 H45  0.0   0.5+    050628 048  0.6-  0.6+
    050519 213  0.4+  0.1-    050531 H45  0.6+  0.6-    050628 048  0.7-  0.4-
    050519 557  0.3-  0.1+    050531 372  0.4+  0.5-    050628 048  0.4-  0.9-
    050519 557  0.3-  0.1+    050531 372  0.8-  0.4-    050628 048  0.6-  0.8-
    050519 213  0.4+  0.5-    050531 349  0.0   0.6+    050628 048  0.9-  1.1-
    050519 557  0.2-  0.2+    050531 349  0.0   0.6+    050628 J97  0.1-  0.2-
    050519 213  0.1+  0.6-    050531 349  0.3+  0.5+    050630 673  0.4+  0.7-
    050520 704  0.9+  0.2-    050602 213  0.5+  0.1+    050630 673  0.3+  0.9-
    050520 704  0.5+  1.2-    050602 J97  0.2+  0.5+    050630 673  0.4+  0.8-
    050520 H45  0.4+  0.3-    050602 213  0.3-  0.3+    050630 673  0.7+  0.7-
    050520 704  0.2-  1.0-    050602 J97  0.7-  0.2+    050701 H42  0.8+  1.8+
    050520 H45  0.9+  0.1-    050602 J97  0.4-  1.3+    050701 H42  1.0-  1.3-
    050520 H45  0.1+  0.2+    050602 213  0.0   1.3+    050701 H42  0.4+  0.6+
    050520 H45  0.7+  1.2+    050603 H45  0.6+  0.4+    050701 H42  1.1-  0.2-
    050520 704  0.1+  0.3+    050603 H45  1.9+  1.8+    050701 A32  0.2-  1.0+
    050520 372  0.7+  0.1-    050603 H45 (0.5-  3.6+)   050701 A32  0.9-  1.6+
    050520 372  0.9-  0.3-    050604 360  0.2+  0.8-    050702 673  0.4+  0.9-
    050520 557  0.4-  0.2-    050604 360  0.1+  0.5-    050702 673  0.3+  0.5-
    050520 A10 (0.3+  2.2-)   050604 360  0.1+  0.7-    050702 673  0.3+  0.7-
    050520 557  0.1+  0.1-    050604 372  0.5+  1.3-    050702 673  0.5+  0.8-
    050520 557  0.2-  0.0     050605 J78  0.2+  1.3-    050702 J78  0.6-  0.0
    050520 557  0.0   0.0     050605 J78  0.4+  1.5-    050702 J78  0.2-  0.0
    050520 557  0.3-  0.0     050605 J78  0.6+  1.2-    050702 J78  0.3+  0.2-
    050520 557  0.2-  0.1+    050605 232  0.0   0.2+    050702 939  0.5-  1.2+
    050520 213  0.1-  0.1+    050605 232  0.4-  0.6+    050702 939  1.2-  1.2+
    050520 213  0.1+  0.1+    050605 372  0.1-  0.8+    050702 939  1.5-  1.1+
    050520 213  0.1+  0.0     050605 J97  0.4+  0.7-    050702 213  0.0   0.2+
    050520 232  0.2-  0.6+    050605 J97  0.7-  0.1+    050702 213  0.2+  0.2-
    050520 232  0.2-  0.1+    050606 D88  0.6+  0.0     050702 213  0.2+  0.5-
    050520 232  0.1+  0.5+    050606 D88  0.5+  0.3-    050703 442  0.2+  0.1-
    050521 J95  0.4-  0.1-    050606 D88  0.2+  1.1-    050703 442 (2.2+  1.1-)
    050521 J95  0.0   0.5-    050606 A41  0.9-  0.6+    050703 442 (4.7+  1.2-)
    050521 J95  0.3+  0.1+    050606 A41  0.6-  0.9+    050703 442 (4.9+  2.0-)
    050522 J95  0.3-  0.9+    050606 A41  1.1-  1.2+    050704 J76  0.0   0.3-
    050522 J95  0.5-  0.8+    050609 J76  0.1-  0.4-    050704 J76  0.3+  0.4-
    050522 J95  0.5-  0.7+    050609 J76  0.1-  0.5-    050704 J76  0.5+  0.5-
    050523 699  0.5-  1.9+    050609 J76  0.1-  0.5-    050704 J78  0.3-  0.7-
    050523 699  0.5-  1.1+    050609 H45 (2.0-  2.2-)   050704 J78  0.3-  0.9-
    050523 699  1.2-  0.1+    050609 H45  0.1-  1.7+    050704 J78  0.5-  1.0-
    050525 349  0.1+  0.3-    050609 H45  0.2-  1.7+    050706 J78  0.7-  0.3-
    050525 349  0.3-  0.3-    050609 349  0.2+  0.5-    050706 J78  0.4-  0.5-
    050525 349  0.0   0.0     050609 349  0.7+  0.2-    050706 J78  0.7+  0.1+
    050525 595  1.1-  0.3+    050609 349  0.7+  0.4-    050707 649  0.3-  0.4+
    050525 595  0.4-  0.2+    050612 213  0.5-  0.2+    050707 649  0.5-  0.7+
    050525 595  0.1+  0.2-    050612 213  0.4-  0.3+    050707 649  0.6-  0.6+
    050525 595  0.3-  0.3+    050612 213  0.3-  0.1+    050711 785  0.8+  0.7-
    050525 595  0.4-  0.5-    050612 J97  0.0   0.3-    050711 785  0.8-  0.6-
    050525 213  0.3+  0.2-    050613 704  0.4+  1.4+    050712 785  0.3-  1.1+
    050525 213  0.6+  0.2-    050613 704  0.8-  0.8+    050712 785  0.4+  0.3+
    050525 213  0.0   0.3+    050613 704  0.4-  0.1+    050712 785  1.2+  0.2+
    050526 H45  0.4-  1.0+    050613 699 (3.1-  3.2+)   050712 785  1.1+  0.2-
    050526 H45  0.1+  0.2+    050613 704  1.0+  1.7-    050712 104  0.0   0.1-
    050526 H45  0.5+  0.5-    050613 704  0.9-  1.0-    050712 104  0.3-  0.4+
    050526 048  0.2-  0.8+    050613 699  0.0   0.3+    050712 104  1.0+  0.0
    050526 048  0.7+  0.3+    050613 699  0.7-  1.2+    050712 104  0.0   0.1+
    050526 048  0.5-  0.3-    050613 699 (2.1-  2.2+)   050715 J97  1.1+  0.4+
    050526 048  0.2+  0.2-    050616 673  0.7+  0.9-    050715 442  0.9+  0.5+
    050526 048  0.7+  1.4-    050616 673  0.8+  0.8-    050715 442  0.1-  0.1+
    050526 461  0.3+  0.6-    050616 673  0.6+  0.9-    050716 232  1.4-  1.0+
    050526 461  0.3+  0.6-    050616 673  0.6+  0.7-    050717 232  1.1-  0.4+
    050526 461  0.5+  0.6-    050616 213  0.1-  0.7+    050717 232  0.0   0.3+
    050526 461  0.2+  0.6-    050616 213  0.2+  0.2-    050717 673  0.2+  0.6-
    050527 461  0.4+  0.7-    050616 213  0.7-  0.2+    050717 673  0.1+  0.4-
    050527 461  0.4+  0.6-    050617 945  0.2+  0.6-    050717 673  0.1+  0.3-
    050527 349  0.8-  0.3-    050617 945  0.8+  0.8-    050717 673  0.1-  0.1+
    050527 349  0.6-  0.2-    050617 945  0.2-  0.6-
    050527 349  0.3-  0.1+    050617 945  0.4+  0.2-
    
         The "original" and "future" barycentric values of 1/a are -0.000011
    and -0.000097 (+/- 0.000044) AU^-1, respectively.
    
    Brian G. Marsden             (C) Copyright 2005 MPC           M.P.E.C. 2005-O05
    

    Read MPEC 2005-O04 Read MPEC 2005-O06


    MPEC number:

    Enter an MPEC number in one of the following forms:

    • 1997-B01 (the full form)
    • J97B01 (the packed version of the full form)
    • B01 (the abbreviated form)